TimeEST,TemperatureF,Dew PointF,Humidity,Sea Level PressureIn,VisibilityMPH,Wind Direction,Wind SpeedMPH,Gust SpeedMPH,PrecipitationIn,Events,Conditions,WindDirDegrees,DateUTC
12:52 AM,24.1,10.0,55,29.53,10.0,WNW,16.1,20.7,N/A,,Clear,290,2014-01-07 05:52:00
1:52 AM,21.9,8.1,55,29.56,10.0,WNW,23.0,32.2,N/A,,Partly Cloudy,290,2014-01-07 06:52:00
2:52 AM,16.0,-0.0,49,29.62,10.0,WNW,20.7,29.9,N/A,,Clear,290,2014-01-07 07:52:00
3:52 AM,12.9,-7.1,41,29.67,10.0,WNW,17.3,35.7,N/A,,Overcast,290,2014-01-07 08:52:00
4:52 AM,12.0,-6.0,44,29.70,10.0,WNW,18.4,32.2,N/A,,Scattered Clouds,290,2014-01-07 09:52:00
5:52 AM,10.0,-7.1,46,29.75,10.0,WNW,21.9,26.5,N/A,,Clear,290,2014-01-07 10:52:00
6:52 AM,9.0,-7.1,48,29.80,10.0,WNW,19.6,33.4,N/A,,Clear,290,2014-01-07 11:52:00
7:52 AM,9.0,-8.0,46,29.85,10.0,West,13.8,28.8,N/A,,Clear,280,2014-01-07 12:52:00
8:52 AM,10.0,-8.0,44,29.91,10.0,West,12.7,28.8,N/A,,Clear,280,2014-01-07 13:52:00
9:52 AM,10.0,-6.0,48,29.94,10.0,West,23.0,34.5,N/A,,Partly Cloudy,280,2014-01-07 14:52:00
10:52 AM,10.9,-6.0,47,29.95,10.0,West,19.6,32.2,N/A,,Scattered Clouds,270,2014-01-07 15:52:00
11:52 AM,10.9,-8.0,42,29.95,10.0,West,18.4,27.6,N/A,,Partly Cloudy,270,2014-01-07 16:52:00
12:52 PM,12.0,-9.9,37,29.95,10.0,WNW,19.6,28.8,N/A,,Clear,290,2014-01-07 17:52:00
1:52 PM,10.9,-11.0,37,29.98,10.0,WNW,16.1,25.3,N/A,,Clear,290,2014-01-07 18:52:00
2:52 PM,10.9,-11.9,35,30.01,10.0,WNW,10.4,24.2,N/A,,Clear,290,2014-01-07 19:52:00
3:52 PM,9.0,-11.9,38,30.05,10.0,West,19.6,26.5,N/A,,Clear,280,2014-01-07 20:52:00
4:52 PM,8.1,-13.0,38,30.08,10.0,West,10.4,-,N/A,,Clear,260,2014-01-07 21:52:00
5:52 PM,7.0,-11.9,42,30.12,10.0,West,10.4,21.9,N/A,,Clear,260,2014-01-07 22:52:00
6:52 PM,7.0,-13.0,40,30.14,10.0,West,11.5,20.7,N/A,,Clear,260,2014-01-07 23:52:00
7:52 PM,7.0,-13.0,40,30.16,10.0,West,18.4,27.6,N/A,,Clear,260,2014-01-08 00:52:00
8:52 PM,7.0,-13.0,40,30.18,10.0,West,10.4,-,N/A,,Clear,260,2014-01-08 01:52:00
9:52 PM,7.0,-13.0,40,30.19,10.0,WSW,10.4,23.0,N/A,,Clear,250,2014-01-08 02:52:00
10:52 PM,7.0,-11.9,42,30.20,10.0,WSW,10.4,20.7,N/A,,Clear,240,2014-01-08 03:52:00
11:52 PM,7.0,-11.0,44,30.21,10.0,Variable,6.9,23.0,N/A,,Clear,0,2014-01-08 04:52:00